EW1940 Weather Reports


Display with metric or nautical units.
time (UTC)temp
F
wind
direction
speed
MPH
gust
MPH
rain 1hr
in
rain 24hr
in
rain mn
in
humidity
%
barometer
mb
20260905211517 59 0.0 0.0 0.00 0.00 0.00 82 1025.3
20260905210518 59 0.0 0.0 0.00 0.00 0.00 81 1025.5
20260905205517 59 0.0 0.0 0.00 0.00 0.00 79 1025.4
20260905204517 60 0.0 0.0 0.00 0.00 0.00 79 1025.4
20260905203517 60 0.0 0.0 0.00 0.00 0.00 77 1025.6
20260905202517 60 0.0 0.0 0.00 0.00 0.00 76 1025.6
20260905201538 61 0.0 0.0 0.00 0.00 0.00 76 1025.5
20260905200517 61 0.0 0.0 0.00 0.00 0.00 75 1025.3
20260905195558 61 0.0 0.0 0.00 0.00 0.00 74 1025.1
20260905194517 62 0.0 0.0 0.00 0.00 0.00 74 1025.2
20260905193517 62 0.0 0.0 0.00 0.00 0.00 73 1025.3
20260905192518 63 0.0 1.0 0.00 0.00 0.00 72 1025.2
20260905191517 63 0.0 0.0 0.00 0.00 0.00 71 1025.0
20260905190518 64 0.0 2.0 0.00 0.00 0.00 71 1025.0
20260905185518 64 0.0 2.0 0.00 0.00 0.00 70 1024.8
20260905184518 65 225 1.0 3.0 0.00 0.00 0.00 69 1024.7
20260905183518 66 248 1.0 3.0 0.00 0.00 0.00 68 1024.8
20260905182518 66 0.0 3.0 0.00 0.00 0.00 67 1024.6
20260905181518 66 225 2.0 6.0 0.00 0.00 0.00 67 1024.8
20260905180516 67 248 3.0 8.0 0.00 0.00 0.00 66 1024.8
20260905175518 67 248 3.0 8.0 0.00 0.00 0.00 67 1024.7
20260905174516 67 248 5.0 9.0 0.00 0.00 0.00 67 1024.9
20260905173516 68 248 4.0 9.0 0.00 0.00 0.00 66 1024.7
20260905172518 68 225 5.0 9.0 0.00 0.00 0.00 65 1024.7
20260905171518 68 248 5.0 8.0 0.00 0.00 0.00 65 1024.7
20260905170538 68 225 5.0 11.0 0.00 0.00 0.00 64 1024.8
20260905165516 69 225 5.0 11.0 0.00 0.00 0.00 64 1024.7
20260905164516 69 248 7.0 13.0 0.00 0.00 0.00 64 1024.6
20260905163516 69 225 8.0 14.0 0.00 0.00 0.00 64 1024.6
20260905162516 69 248 7.0 13.0 0.00 0.00 0.00 64 1024.6
20260905161518 69 248 8.0 14.0 0.00 0.00 0.00 63 1024.7
20260905160516 69 225 9.0 16.0 0.00 0.00 0.00 62 1024.7
20260905155518 70 248 8.0 14.0 0.00 0.00 0.00 62 1024.8
20260905154516 70 225 9.0 17.0 0.00 0.00 0.00 61 1024.8
20260905153516 71 248 5.0 13.0 0.00 0.00 0.00 61 1024.8
20260905152537 71 225 7.0 15.0 0.00 0.00 0.00 59 1024.9
20260905151518 71 248 7.0 11.0 0.00 0.00 0.00 59 1024.9
20260905150538 71 225 8.0 16.0 0.00 0.00 0.00 60 1025.0
20260905145516 71 225 9.0 14.0 0.00 0.00 0.00 59 1024.9
20260905144518 71 203 7.0 12.0 0.00 0.00 0.00 58 1024.9
20260905143517 71 225 8.0 15.0 0.00 0.00 0.00 59 1024.9
20260905142517 71 225 9.0 15.0 0.00 0.00 0.00 58 1024.9
20260905141516 71 225 8.0 15.0 0.00 0.00 0.00 58 1025.0
20260905140519 71 203 9.0 15.0 0.00 0.00 0.00 59 1025.0
20260905135516 71 203 9.0 14.0 0.00 0.00 0.00 57 1024.9
20260905134516 71 225 8.0 12.0 0.00 0.00 0.00 57 1024.9
20260905133516 73 225 7.0 16.0 0.00 0.00 0.00 53
20260905132536 73 225 7.0 11.0 0.00 0.00 0.00 52
20260905131518 73 225 6.0 13.0 0.00 0.00 0.00 51
20260905130516 72 248 8.0 14.0 0.00 0.00 0.00 51 1024.8
20260905125516 72 248 6.0 11.0 0.00 0.00 0.00 52 1024.9
20260905124517 72 248 7.0 13.0 0.00 0.00 0.00 53 1024.8
20260905123516 72 248 7.0 12.0 0.00 0.00 0.00 51 1024.8
20260905122516 73 225 7.0 14.0 0.00 0.00 0.00 51 1024.7
20260905121522 73 225 6.0 11.0 0.00 0.00 0.00 52 1024.7
20260905120517 73 248 6.0 12.0 0.00 0.00 0.00 51 1024.6
20260905115537 74 248 6.0 12.0 0.00 0.00 0.00 51 1024.6
20260905114517 74 248 5.0 12.0 0.00 0.00 0.00 51 1024.6
20260905113516 74 248 4.0 8.0 0.00 0.00 0.00 51 1024.6
20260905112516 74 248 4.0 11.0 0.00 0.00 0.00 50 1024.7
20260905111516 74 293 5.0 15.0 0.00 0.00 0.00 49 1024.6
20260905110516 74 293 5.0 10.0 0.00 0.00 0.00 51 1024.6
20260905105517 74 293 5.0 11.0 0.00 0.00 0.00 51 1024.7
20260905104517 74 293 4.0 10.0 0.00 0.00 0.00 50 1024.7
20260905103517 73 315 5.0 12.0 0.00 0.00 0.00 50 1024.7
20260905102516 73 315 4.0 9.0 0.00 0.00 0.00 52 1024.7
20260905101517 72 315 5.0 10.0 0.00 0.00 0.00 53 1024.6
20260905100516 72 315 4.0 10.0 0.00 0.00 0.00 53 1024.5
20260905095516 72 315 5.0 15.0 0.00 0.00 0.00 53 1024.5
20260905094515 72 315 6.0 13.0 0.00 0.00 0.00 52 1024.4
20260905093516 71 315 6.0 12.0 0.00 0.00 0.00 54 1024.3
20260905092515 71 338 4.0 16.0 0.00 0.00 0.00 56 1024.4
20260905091515 70 315 6.0 12.0 0.00 0.00 0.00 55 1024.3
20260905090515 70 315 6.0 12.0 0.00 0.00 0.00 57 1024.2
20260905085516 70 315 6.0 12.0 0.00 0.00 0.00 57 1024.1
20260905084517 69 315 5.0 11.0 0.00 0.00 0.00 60 1024.2
20260905083516 69 315 4.0 9.0 0.00 0.00 0.00 64 1024.1
20260905082517 68 315 5.0 12.0 0.00 0.01 0.00 66 1024.0
20260905081516 68 315 4.0 9.0 0.00 0.06 0.00 67 1023.8
20260905080517 67 338 4.0 9.0 0.00 0.06 0.00 69 1023.8
20260905075517 66 315 2.0 6.0 0.00 0.06 0.00 74 1023.7
20260905074516 64 338 1.0 3.0 0.00 0.06 0.00 79 1023.7
20260905073515 63 0.0 1.0 0.00 0.06 0.00 82 1023.7
20260905072516 61 315 1.0 2.0 0.00 0.06 0.00 86 1023.6
20260905071515 60 0 2.0 4.0 0.00 0.06 0.00 89 1023.6
20260905070515 58 0 1.0 3.0 0.00 0.06 0.00 91 1023.5
20260905065517 57 338 3.0 5.0 0.00 0.06 0.00 92 1023.3
20260905064515 55 338 2.0 5.0 0.00 0.06 0.00 93 1023.3
20260905063515 54 0.0 0.0 0.00 0.06 0.00 92 1023.2
20260905062536 53 0.0 0.0 0.00 0.06 0.00 91 1023.2
20260905061517 53 0.0 0.0 0.00 0.06 0.00 91 1023.0
20260905060515 53 0.0 0.0 0.00 0.06 0.00 90 1023.0
20260905055515 53 0.0 0.0 0.00 0.06 0.00 90 1023.0
20260905054515 53 0.0 0.0 0.00 0.06 0.00 89 1022.9
20260905053517 53 0.0 0.0 0.00 0.06 0.00 89 1022.8
20260905052515 53 0.0 0.0 0.00 0.06 0.00 89 1022.5
20260905051515 54 0.0 0.0 0.00 0.06 0.00 88 1022.5
20260905050515 54 0.0 0.0 0.00 0.06 0.00 88 1022.4
20260905045518 55 0.0 0.0 0.00 0.06 0.00 88 1022.3
20260905044519 55 0.0 0.0 0.00 0.06 0.00 88 1022.2
20260905043517 56 0.0 0.0 0.00 0.06 0.00 88 1022.1
20260905042517 56 0.0 0.0 0.00 0.06 0.00 88 1022.0
20260905041519 56 0.0 0.0 0.00 0.06 0.00 89 1021.9
20260905040517 56 338 1.0 3.0 0.00 0.06 0.00 88 1021.9
20260905035517 56 315 1.0 4.0 0.00 0.06 0.00 88 1021.8
20260905034519 57 315 2.0 4.0 0.00 0.06 0.00 88 1021.6
20260905033517 57 315 1.0 4.0 0.00 0.06 0.00 87 1021.7
20260905032518 57 338 1.0 4.0 0.00 0.06 0.00 87 1021.6
20260905031517 58 315 1.0 4.0 0.00 0.06 0.00 86 1021.5
20260905030538 58 315 1.0 3.0 0.00 0.06 0.00 86 1021.4
20260905025517 58 315 2.0 5.0 0.00 0.06 0.00 86 1021.2
20260905024519 58 315 1.0 4.0 0.00 0.06 0.00 85 1021.3
20260905023519 58 315 2.0 5.0 0.00 0.06 0.00 85 1021.3
20260905022517 59 315 3.0 5.0 0.00 0.06 0.00 85 1021.1
20260905021517 59 338 3.0 6.0 0.00 0.06 0.00 85 1021.0
20260905020519 59 315 3.0 7.0 0.00 0.06 0.00 85 1020.9
20260905015517 59 315 2.0 9.0 0.00 0.06 0.00 85 1020.8
20260905014558 59 315 3.0 7.0 0.00 0.06 0.00 85 1020.8
20260905013517 59 338 3.0 5.0 0.00 0.06 0.00 85 1020.9
20260905012519 59 315 3.0 7.0 0.00 0.06 0.00 84 1020.8
20260905011517 59 315 3.0 6.0 0.00 0.06 0.00 84 1020.6
20260905010517 0 315 3.0 7.0 0.00 0.06 0.00
20260905005517 59 293 3.0 8.0 0.00 0.06 0.00 83
20260905004518 59 293 3.0 7.0 0.00 0.06 0.00 83
20260905003517 59 293 1.0 5.0 0.00 0.06 0.00 83 1020.7
20260905002519 59 270 2.0 8.0 0.00 0.06 0.00 82 1020.5
20260905001518 59 315 3.0 6.0 0.00 0.06 0.00 83 1020.6
20260905000540 59 293 3.0 10.0 0.00 0.06 0.00 83 1020.6
20260904235518 59 293 4.0 8.0 0.00 0.06 0.00 83 1020.5
20260904234516 59 315 2.0 7.0 0.00 0.06 0.00 83 1020.4
20260904233516 59 293 2.0 5.0 0.00 0.06 0.00 83 1020.4
20260904232518 59 315 2.0 4.0 0.00 0.06 0.00 83 1020.4
20260904231517 60 315 2.0 5.0 0.00 0.06 0.00 82 1020.4
20260904230517 60 270 1.0 5.0 0.00 0.06 0.00 82 1020.3
20260904225517 60 315 2.0 5.0 0.00 0.06 0.06 81 1020.2
20260904224516 60 315 2.0 5.0 0.00 0.06 0.06 80 1020.1
20260904223518 60 315 3.0 8.0 0.00 0.06 0.06 79 1020.0
20260904222518 61 315 4.0 6.0 0.00 0.06 0.06 79 1019.9
20260904221518 61 315 4.0 7.0 0.00 0.06 0.06 78 1019.9
20260904220516 61 293 4.0 7.0 0.00 0.06 0.06 78 1019.8
20260904215516 61 315 3.0 8.0 0.00 0.06 0.06 78 1019.8
20260904214516 61 315 3.0 8.0 0.00 0.06 0.06 77 1019.7
20260904213518 61 315 4.0 7.0 0.00 0.06 0.06 76 1019.6
20260904212538 61 315 4.0 9.0 0.00 0.06 0.06 76 1019.6